DIESL EDFM-EDFZ

Flight info

Callsign DIESL
Flight time 0h 14m
Altitude 2500
Route EDFV
Aircraft DA42/L-SBDFGRY/S

Departure

Time 2026-04-25 16:41
Airport Mannheim-City Airport (EDFM)

Arrival

Time 2026-04-25 16:56
Airport Mainz-Finthen Airfield (EDFZ)
Time Latitude Longitude Altitude Speed Heading
2026-04-25 16:27 49.47676 8.51950 317 ft 0 kts 180°
2026-04-25 16:34 49.47674 8.51951 317 ft 2 kts 149°
2026-04-25 16:35 49.47662 8.52008 317 ft 11 kts 149°
2026-04-25 16:35 49.47587 8.52036 317 ft 12 kts 98°
2026-04-25 16:35 49.47587 8.52159 317 ft 10 kts 118°
2026-04-25 16:35 49.47499 8.52170 316 ft 17 kts 186°
2026-04-25 16:36 49.47452 8.52206 316 ft 7 kts 137°
2026-04-25 16:36 49.47437 8.52215 316 ft 8 kts 175°
2026-04-25 16:36 49.47400 8.52200 316 ft 0 kts 269°
2026-04-25 16:39 49.47397 8.52172 316 ft 9 kts 233°
2026-04-25 16:39 49.47312 8.52154 316 ft 13 kts 181°
2026-04-25 16:40 49.47247 8.52101 316 ft 12 kts 275°
2026-04-25 16:40 49.47254 8.51903 316 ft 39 kts 272°
2026-04-25 16:40 49.47280 8.51193 326 ft 86 kts 276°
2026-04-25 16:40 49.47323 8.50235 506 ft 94 kts 277°
2026-04-25 16:41 49.47396 8.49210 810 ft 100 kts 282°
2026-04-25 16:41 49.47428 8.48844 907 ft 103 kts 281°
2026-04-25 16:41 49.48085 8.46575 1572 ft 103 kts 321°
2026-04-25 16:42 49.48691 8.46034 1902 ft 100 kts 334°
2026-04-25 16:42 49.49322 8.45574 2197 ft 102 kts 335°
2026-04-25 16:42 49.49982 8.45167 2486 ft 102 kts 335°
2026-04-25 16:42 49.50735 8.44690 2502 ft 127 kts 338°
2026-04-25 16:43 49.51606 8.44158 2498 ft 141 kts 338°
2026-04-25 16:43 49.52546 8.43585 2502 ft 149 kts 338°
2026-04-25 16:43 49.53538 8.42999 2499 ft 156 kts 342°
2026-04-25 16:43 49.54589 8.42515 2493 ft 159 kts 344°
2026-04-25 16:44 49.55674 8.42046 2498 ft 161 kts 344°
2026-04-25 16:44 49.56760 8.41580 2493 ft 162 kts 345°
2026-04-25 16:44 49.57846 8.41109 2501 ft 163 kts 344°
2026-04-25 16:44 49.58944 8.40627 2501 ft 166 kts 344°
2026-04-25 16:45 49.60064 8.40159 2498 ft 167 kts 345°
2026-04-25 16:45 49.61189 8.39680 2492 ft 168 kts 344°
2026-04-25 16:45 49.62305 8.39198 2497 ft 165 kts 342°
2026-04-25 16:45 49.63339 8.38460 2491 ft 163 kts 332°
2026-04-25 16:46 49.64321 8.37620 2498 ft 160 kts 331°
2026-04-25 16:46 49.65294 8.36802 2508 ft 159 kts 332°
2026-04-25 16:46 49.66285 8.35986 2500 ft 163 kts 332°
2026-04-25 16:46 49.66931 8.35453 2504 ft 165 kts 332°
2026-04-25 16:47 49.68314 8.34331 2496 ft 169 kts 333°
2026-04-25 16:47 49.69348 8.33484 2496 ft 167 kts 333°
2026-04-25 16:47 49.70369 8.32647 2494 ft 164 kts 333°
2026-04-25 16:47 49.71374 8.31824 2499 ft 162 kts 333°
2026-04-25 16:48 49.72367 8.30997 2495 ft 162 kts 333°
2026-04-25 16:48 49.73367 8.30195 2494 ft 161 kts 333°
2026-04-25 16:48 49.74356 8.29388 2503 ft 161 kts 332°
2026-04-25 16:48 49.75351 8.28577 2502 ft 161 kts 332°
2026-04-25 16:49 49.76342 8.27760 2504 ft 161 kts 332°
2026-04-25 16:49 49.77345 8.26935 2503 ft 161 kts 332°
2026-04-25 16:49 49.78354 8.26195 2501 ft 160 kts 338°
2026-04-25 16:49 49.79383 8.25521 2493 ft 160 kts 338°
2026-04-25 16:50 49.80409 8.24859 2498 ft 159 kts 338°
2026-04-25 16:50 49.81428 8.24198 2505 ft 160 kts 337°
2026-04-25 16:50 49.82461 8.23524 2503 ft 162 kts 337°
2026-04-25 16:50 49.83526 8.22827 2369 ft 169 kts 337°
2026-04-25 16:51 49.84618 8.22110 2252 ft 171 kts 337°
2026-04-25 16:51 49.85727 8.21383 2125 ft 174 kts 338°
2026-04-25 16:51 49.86844 8.20652 1999 ft 174 kts 337°
2026-04-25 16:51 49.87586 8.20165 1903 ft 168 kts 338°
2026-04-25 16:52 49.88973 8.19253 1808 ft 156 kts 337°
2026-04-25 16:52 49.89936 8.18619 1808 ft 144 kts 337°
2026-04-25 16:52 49.90771 8.17823 1810 ft 136 kts 324°
2026-04-25 16:52 49.91513 8.16937 1807 ft 133 kts 323°
2026-04-25 16:53 49.92763 8.14929 1790 ft 125 kts 313°
2026-04-25 16:53 49.93371 8.13925 1679 ft 128 kts 321°
2026-04-25 16:53 49.94055 8.13151 1675 ft 117 kts 321°
2026-04-25 16:54 49.94399 8.12045 1517 ft 115 kts 289°
2026-04-25 16:54 49.94724 8.11037 1506 ft 98 kts 315°
2026-04-25 16:54 49.95286 8.10587 1450 ft 88 kts 356°
2026-04-25 16:54 49.95842 8.10985 1258 ft 91 kts 37°
2026-04-25 16:55 49.96245 8.11746 1166 ft 92 kts 52°
2026-04-25 16:55 49.96515 8.12637 1063 ft 92 kts 68°
2026-04-25 16:55 49.96696 8.13600 867 ft 91 kts 65°
2026-04-25 16:55 49.96863 8.14508 754 ft 76 kts 67°
2026-04-25 16:56 49.96966 8.15063 753 ft 28 kts 73°
2026-04-25 16:56 49.97010 8.15291 755 ft 18 kts 75°
2026-04-25 16:56 49.97050 8.15421 753 ft 8 kts 10°
2026-04-25 16:56 49.97072 8.15356 753 ft 9 kts 255°
2026-04-25 16:57 49.97075 8.15246 752 ft 14 kts 306°
2026-04-25 16:57 49.97102 8.15212 751 ft 15 kts 327°
2026-04-25 16:57 49.97212 8.15114 754 ft 8 kts 39°
2026-04-25 16:57 49.97194 8.15166 754 ft 8 kts 167°
2026-04-25 16:58 49.97196 8.15188 753 ft 0 kts 252°